Leesburg, FL

10:02 PM EDT on May 29, 2017 (GMT -0400)
Leesburg Regional

Weather History for KLEE - November, 2014

Change the Weather History Date:

Sunday, November 2, 2014

  Actual Average Record
Temperature  
Mean Temperature 54 °F -  
Max Temperature 66 °F 79 °F 89 °F (2015)
Min Temperature 41 °F 59 °F 35 °F (1993)
Degree Days  
Heating Degree Days 12    
Growing Degree Days 4 (Base 50)    
Moisture  
Dew Point 36 °F    
Average Humidity 58    
Maximum Humidity 82    
Minimum Humidity 28    
Precipitation  
Precipitation 0.00 in - - ()
Sea Level Pressure  
Sea Level Pressure 30.27 in    
Wind  
Wind Speed 8 mph (NNW)    
Max Wind Speed 12 mph    
Max Gust Speed -    
Visibility 10 miles    
Events      
Averages and records for this station are not official NWS values.
T = Trace of Precipitation, MM = Missing Value Source: NWS Daily Summary

Daily Weather History Graph

Daily Weather History Graph

Search for Another Location

Airport or City:

Trip Planner

Search our weather history database for the weather conditions in past years. The results will help you decide how hot, cold, wet, or windy it might be!

Date:

Astronomy

Nov. 02, 2014 Rise Set
Actual Time 6:40 AM EST 5:40 PM EST
Civil Twilight 6:15 AM EST 6:05 PM EST
Nautical Twilight 5:47 AM EST 6:33 PM EST
Astronomical Twilight 5:20 AM EST 7:01 PM EST
Moon 2:51 PM EST (11/2) 2:05 AM EST (11/2)
Length of Visible Light 11h 49m
Length of Day
11h 00m
Waxing Gibbous, 78% of the Moon is Illuminated
Nov 2
Waxing Gibbous
Nov 6
Full
Nov 14
Last Quarter
Nov 22
New
Nov 29
First Quarter

Hourly Weather History & Observations

Time (EST) Temp. Windchill Dew Point Humidity Pressure Visibility Wind Dir Wind Speed Gust Speed Precip Events Conditions
12:53 AM 48.0 °F - 37.0 °F 66% 30.19 in 10.0 mi NW 8.1 mph - N/A   Clear
1:53 AM 46.9 °F - 37.0 °F 68% 30.21 in 10.0 mi NW 6.9 mph - N/A   Clear
1:53 AM 46.0 °F 41.4 °F 37.9 °F 73% 30.21 in 10.0 mi NW 9.2 mph - N/A   Clear
2:53 AM 45.0 °F 41.2 °F 37.0 °F 74% 30.22 in 10.0 mi NW 6.9 mph - N/A   Clear
3:53 AM 44.1 °F 39.5 °F 37.0 °F 76% 30.23 in 10.0 mi NW 8.1 mph - N/A   Clear
4:53 AM 44.1 °F 38.6 °F 37.0 °F 76% 30.24 in 10.0 mi North 10.4 mph - N/A   Clear
5:53 AM 42.1 °F 35.7 °F 36.0 °F 79% 30.26 in 10.0 mi North 11.5 mph - N/A   Clear
6:53 AM 41.0 °F 36.4 °F 36.0 °F 82% 30.27 in 10.0 mi North 6.9 mph - N/A   Clear
7:53 AM 45.0 °F 39.3 °F 37.0 °F 74% 30.29 in 10.0 mi NNW 11.5 mph - N/A   Clear
8:53 AM 48.0 °F - 37.0 °F 66% 30.32 in 10.0 mi NNW 10.4 mph - N/A   Clear
9:53 AM 53.1 °F - 36.0 °F 52% 30.32 in 10.0 mi North 9.2 mph - N/A   Clear
10:53 AM 55.9 °F - 37.9 °F 51% 30.32 in 10.0 mi NNW 8.1 mph - N/A   Clear
11:53 AM 57.9 °F - 37.0 °F 46% 30.30 in 10.0 mi Variable 3.5 mph - N/A   Clear
12:53 PM 61.0 °F - 36.0 °F 39% 30.27 in 10.0 mi Variable 5.8 mph - N/A   Clear
1:53 PM 64.9 °F - 33.1 °F 31% 30.25 in 10.0 mi NNW 10.4 mph - N/A   Clear
2:53 PM 64.9 °F - 34.0 °F 32% 30.22 in 10.0 mi North 8.1 mph - N/A   Clear
3:53 PM 66.0 °F - 32.0 °F 28% 30.23 in 10.0 mi NNW 9.2 mph - N/A   Clear
4:53 PM 63.0 °F - 30.9 °F 30% 30.24 in 10.0 mi NW 5.8 mph - N/A   Clear
5:53 PM 59.0 °F - 36.0 °F 42% 30.26 in 10.0 mi NNW 6.9 mph - N/A   Clear
6:53 PM 55.9 °F - 37.9 °F 51% 30.28 in 10.0 mi North 8.1 mph - N/A   Clear
7:53 PM 53.1 °F - 39.0 °F 59% 30.30 in 10.0 mi NNE 6.9 mph - N/A   Clear
8:53 PM 51.1 °F - 39.0 °F 63% 30.32 in 10.0 mi North 6.9 mph - N/A   Clear
9:53 PM 50.0 °F - 37.9 °F 63% 30.33 in 10.0 mi NE 5.8 mph - N/A   Clear
10:53 PM 48.9 °F - 37.0 °F 64% 30.34 in 10.0 mi NNE 5.8 mph - N/A   Clear